Time,TemperatureF,DewpointF,PressureIn,WindDirection,WindDirectionDegrees,WindSpeedMPH,WindSpeedGustMPH,Humidity,HourlyPrecipIn,Conditions,Clouds,dailyrainin,SoftwareType,DateUTC
2013-03-06 04:30:00,37.0,35.0,-100.00,SE,140,3.0,9.0,92,-99.99,,,-99.99,,2013-03-06 09:30:00,
2013-03-06 05:11:00,37.0,35.0,-100.00,SE,140,3.0,9.0,92,-99.99,,,-99.99,,2013-03-06 10:11:00,
2013-03-06 05:22:00,37.0,35.0,-100.00,SE,140,3.0,9.0,92,-99.99,,,-99.99,,2013-03-06 10:22:00,
2013-03-06 06:11:00,37.0,35.0,-100.00,South,185,6.0,18.0,93,-99.99,,,-99.99,,2013-03-06 11:11:00,
2013-03-06 08:32:00,38.0,36.0,-100.00,SSW,195,5.0,16.0,93,-99.99,,,-99.99,,2013-03-06 13:32:00,
2013-03-06 14:32:00,38.0,34.0,-100.00,South,170,5.0,18.0,83,-99.99,,,-99.99,,2013-03-06 19:32:00,
2013-03-06 15:33:00,38.0,33.0,-100.00,South,170,8.0,20.0,81,-99.99,,,-99.99,,2013-03-06 20:33:00,
2013-03-06 17:42:00,34.0,33.0,-100.00,SSW,195,3.0,10.0,93,-99.99,,,-99.99,,2013-03-06 22:42:00,
2013-03-06 17:52:00,34.0,33.0,-100.00,SSW,195,3.0,10.0,93,-99.99,,,-99.99,,2013-03-06 22:52:00,
2013-03-06 18:02:00,35.0,33.0,-100.00,SSE,160,3.0,18.0,92,-99.99,,,-99.99,,2013-03-06 23:02:00,
2013-03-06 18:11:00,35.0,33.0,-100.00,South,170,6.0,12.0,91,-99.99,,,-99.99,,2013-03-06 23:11:00,
2013-03-06 18:22:00,35.0,33.0,-100.00,SSE,155,6.0,14.0,91,-99.99,,,-99.99,,2013-03-06 23:22:00,
2013-03-06 18:32:00,35.0,33.0,-100.00,SE,145,5.0,14.0,91,-99.99,,,-99.99,,2013-03-06 23:32:00,
2013-03-06 18:42:00,35.0,33.0,-100.00,ESE,105,5.0,17.0,91,-99.99,,,-99.99,,2013-03-06 23:42:00,
2013-03-06 18:52:00,35.0,33.0,-100.00,SE,140,5.0,13.0,92,-99.99,,,-99.99,,2013-03-06 23:52:00,
2013-03-06 19:02:00,35.0,33.0,-100.00,SSE,165,6.0,15.0,92,-99.99,,,-99.99,,2013-03-07 00:02:00,
2013-03-06 19:11:00,35.0,33.0,-100.00,South,170,6.0,14.0,91,-99.99,,,-99.99,,2013-03-07 00:11:00,
2013-03-06 19:22:00,35.0,33.0,-100.00,SE,140,6.0,18.0,91,-99.99,,,-99.99,,2013-03-07 00:22:00,
2013-03-06 19:42:00,35.0,32.0,-100.00,SE,140,3.0,13.0,92,-99.99,,,-99.99,,2013-03-07 00:42:00,
2013-03-06 19:52:00,35.0,33.0,-100.00,SSE,165,7.0,15.0,92,-99.99,,,-99.99,,2013-03-07 00:52:00,
2013-03-06 20:02:00,35.0,33.0,-100.00,SE,145,3.0,16.0,92,-99.99,,,-99.99,,2013-03-07 01:02:00,
2013-03-06 20:12:00,35.0,33.0,-100.00,SE,130,5.0,13.0,92,-99.99,,,-99.99,,2013-03-07 01:12:00,
2013-03-06 20:22:00,35.0,32.0,-100.00,ESE,110,2.0,12.0,91,-99.99,,,-99.99,,2013-03-07 01:22:00,
2013-03-06 20:32:00,34.0,32.0,-100.00,South,175,5.0,15.0,92,-99.99,,,-99.99,,2013-03-07 01:32:00,
2013-03-06 20:42:00,35.0,32.0,-100.00,SE,135,5.0,14.0,92,-99.99,,,-99.99,,2013-03-07 01:42:00,
2013-03-06 20:50:00,35.0,33.0,-100.00,South,180,6.0,14.0,91,-99.99,,,-99.99,,2013-03-07 01:50:00,
2013-03-06 20:52:00,34.0,33.0,-100.00,SSE,155,7.0,13.0,93,-99.99,,,-99.99,,2013-03-07 01:52:00,
2013-03-06 21:01:00,35.0,32.0,-100.00,SE,140,5.0,14.0,92,-99.99,,,-99.99,,2013-03-07 02:01:00,
2013-03-06 21:11:00,35.0,33.0,-100.00,South,170,5.0,15.0,92,-99.99,,,-99.99,,2013-03-07 02:11:00,
2013-03-06 21:21:00,35.0,32.0,-100.00,SSE,160,5.0,13.0,92,-99.99,,,-99.99,,2013-03-07 02:21:00,
2013-03-06 21:32:00,35.0,33.0,-100.00,South,180,6.0,14.0,91,-99.99,,,-99.99,,2013-03-07 02:32:00,
2013-03-06 21:42:00,35.0,33.0,-100.00,South,180,6.0,14.0,91,-99.99,,,-99.99,,2013-03-07 02:42:00,
2013-03-06 22:02:00,35.0,31.0,-100.00,SE,140,6.0,14.0,83,-99.99,,,-99.99,,2013-03-07 03:02:00,
2013-03-06 22:12:00,35.0,31.0,-100.00,SE,140,6.0,14.0,83,-99.99,,,-99.99,,2013-03-07 03:12:00,
2013-03-06 22:22:00,36.0,31.0,-100.00,South,170,7.0,28.0,81,-99.99,,,-99.99,,2013-03-07 03:22:00,
2013-03-06 22:30:00,35.0,31.0,-100.00,SE,125,5.0,17.0,87,-99.99,,,-99.99,,2013-03-07 03:30:00,
2013-03-06 22:32:00,36.0,31.0,-100.00,ESE,115,3.0,28.0,81,-99.99,,,-99.99,,2013-03-07 03:32:00,
2013-03-06 22:42:00,35.0,31.0,-100.00,South,180,5.0,12.0,83,-99.99,,,-99.99,,2013-03-07 03:42:00,
2013-03-06 22:52:00,35.0,31.0,-100.00,South,180,7.0,17.0,83,-99.99,,,-99.99,,2013-03-07 03:52:00,
2013-03-06 23:02:00,35.0,31.0,-100.00,South,180,7.0,17.0,83,-99.99,,,-99.99,,2013-03-07 04:02:00,
2013-03-06 23:12:00,35.0,31.0,-100.00,SE,125,5.0,17.0,87,-99.99,,,-99.99,,2013-03-07 04:12:00,
2013-03-06 23:22:00,35.0,31.0,-100.00,SE,125,5.0,17.0,87,-99.99,,,-99.99,,2013-03-07 04:22:00,